Location: Capvern
(43.1036°N, 0.3160°E)
Time: 22:54:46
(UTC+00:00)

Cosmos 1626 Rocket - Pass Details

Date: 16 October 2021
Orbit: 603 x 631 km, 82.5° (Epoch: 04 December)

Event Time Altitude Azimuth Distance (km) Brightness Sun altitude
Rises 19:22:30 0° 351° (N) 2,874 7.2 -24.1°
Reaches altitude 10° 19:24:44 10° 351° (N) 1,963 6.3 -24.5°
Enters shadow 19:28:14 58° 348° (NNW) 712 3.9 -25.2°
